Regional Weather Roundup
Issued by NWS Northern Indiana

Home | Current Version | Previous Version | Graphics & Text | Print | Product List | Glossary On
Versions: 1 2 3 4 5 6 7 8 9 10 11 12 13 14 15 16 17 18 19 20 21 22 23 24 25 26 27 28 29 30 31 32 33 34 35 36 37 38 39 40 41 42 43 44 45 46 47 48 49 50
000
ASUS43 KIWX 191300
RWRIWX

KIWX WEATHER ROUNDUP
NATIONAL WEATHER SERVICE NORTHERN INDIANA
900 AM EDT FRI SEP 19 2014

NOTE: "FAIR" INDICATES FEW OR NO CLOUDS BELOW 12,000 FEET WITH NO
SIGNIFICANT WEATHER AND/OR OBSTRUCTIONS TO VISIBILITY.

* THESE STATIONS ARE NOT UNDER NWS QUALITY CONTROL. THEY ALSO MAY NOT
  REPORT WEATHER SUCH AS PRECIPITATION OR FOG.

INZ001>027-191400-
NORTHERN INDIANA

CITY           SKY/WX    TMP DP  RH WIND       PRES   REMARKS
VALPARAISO     SUNNY     52  50  93 E5        30.20S FOG
SOUTH BEND     SUNNY     54  51  90 E9        30.22S FOG
ELKHART*       SUNNY     52  52 100 SE6       30.22S
GOSHEN         SUNNY     54  50  86 SE8       30.22S
WARSAW*        SUNNY     52  52 100 E10       30.22S FOG
ANGOLA*        SUNNY     52  48  87 SE7       30.23F
FORT WAYNE     CLOUDY    51  50  96 E8        30.24S FOG
PERU/GRISSOM   SUNNY     53  53 100 E6        30.21R

$$
INZ028>050-191400-
CENTRAL INDIANA

CITY           SKY/WX    TMP DP  RH WIND       PRES   REMARKS
LAFAYETTE      SUNNY     52  50  93 VRB5      30.19R
KOKOMO*        SUNNY     52  48  87 E5        30.21S
MUNCIE*        SUNNY     52  49  89 E6        30.21R
INDIANAPOLIS   NOT AVBL

$$
MIZ043>046-050>051-056>058-064>065-071>073-077>080-191400-
SOUTHWEST LOWER MICHIGAN

CITY           SKY/WX    TMP DP  RH WIND       PRES   REMARKS
BATTLE CREEK   SUNNY     50  46  86 SE6       30.25R
BENTON HARBOR  SUNNY     53  51  93 SE8       30.20R FOG
COLDWATER*     SUNNY     52  49  91 SE5       30.24S FOG
HILLSDALE*     SUNNY     52  50  93 E5        30.24S
HOLLAND        SUNNY     53  49  86 E8        30.22S FOG
GRAND RAPIDS   FOG       50  50 100 SE9       30.25R VSB 1/2
KALAMAZOO      SUNNY     49  47  93 CALM      30.25R FOG
STURGIS*       SUNNY     52  52 100 SE5       30.23R FOG
THREE RIVERS*  FAIR      51  50  97 E5        30.24R FOG

$$
OHZ001>008-015>018-024>025-191400-
NORTHWEST OHIO

CITY           SKY/WX    TMP DP  RH WIND       PRES   REMARKS
DEFIANCE       SUNNY     51  47  86 NE3       30.25S FOG
FINDLAY        SUNNY     54  49  83 E7        30.23S
TOLEDO EXPRESS SUNNY     51  48  89 NE3       30.24F
TOLEDO METCALF SUNNY     57  49  74 NE3       30.26R
LIMA           SUNNY     55  51  86 E9        30.23R

$$
&&



USA.gov is the U.S. government's official web portal to all federal, state and local government web resources and services.